Weather History for Michigan City, IN

Change the Weather History Date:

Saturday, March 1, 2014

  Actual Average (KVPZ) Record (KVPZ)
Temperature  
Mean Temperature 24 °F 32 °F  
Max Temperature 30 °F 40 °F 67 °F (1992)
Min Temperature 17 °F 24 °F -2 °F (1960)
Degree Days  
Heating Degree Days 42 33  
Month to date heating degree days 33  
Since 1 July heating degree days 4765  
Cooling Degree Days 0 0  
Month to date cooling degree days 0  
Year to date cooling degree days 0  
Moisture  
Dew Point 17 °F    
Average Humidity 76    
Maximum Humidity 93    
Minimum Humidity 47    
Precipitation  
Precipitation 0.00 in 0.08 in 1.38 in (1976)
Month to date precipitation 0.08  
Year to date precipitation 3.25  
Sea Level Pressure  
Sea Level Pressure 30.17 in    
Wind  
Wind Speed 7 mph (North)    
Max Wind Speed 20 mph    
Max Gust Speed 25 mph    
Visibility 6 miles    
Events Snow    
T = Trace of Precipitation, MM = Missing Value Source: NWS Daily Summary

Daily Weather History Graph

Daily Weather History Graph

Search for Another Location

Airport:

Trip Planner

Search our weather history database for the weather conditions in past years. The results will help you decide how hot, cold, wet, or windy it might be!

Date:

Astronomy

Mar. 01, 2014 Rise Set
Actual Time 6:22 AM CST 5:37 PM CST
Civil Twilight 5:54 AM CST 6:05 PM CST
Nautical Twilight 5:22 AM CST 6:37 PM CST
Astronomical Twilight 4:49 AM CST 7:10 PM CST
Moon 6:14 AM CST (3/1) 6:25 PM CST (3/1)
Length of Visible Light 12h 11m
Length of Day
11h 15m
New Moon, 0% of the Moon is Illuminated
Mar 1
New Moon
Mar 8
First Quarter
Mar 16
Full
Mar 23
Last Quarter
Mar 30
New

Hourly Weather History & Observations

Time (CST) Temp. Windchill Dew Point Humidity Pressure Visibility Wind Dir Wind Speed Gust Speed Precip Events Conditions
12:15 AM 30.2 °F 24.3 °F 12.2 °F 47% 30.01 in 10.0 mi South 5.8 mph - N/A   Mostly Cloudy
12:35 AM 30.2 °F 24.3 °F 12.2 °F 47% 30.01 in 10.0 mi South 5.8 mph - N/A   Mostly Cloudy
12:55 AM 30.2 °F 24.3 °F 14.0 °F 51% 30.01 in 10.0 mi SSW 5.8 mph - N/A   Scattered Clouds
1:15 AM 30.2 °F 22.6 °F 14.0 °F 51% 30.01 in 10.0 mi SSW 8.1 mph - N/A   Scattered Clouds
1:35 AM 30.2 °F 24.3 °F 14.0 °F 51% 30.01 in 10.0 mi SSW 5.8 mph - N/A   Scattered Clouds
1:55 AM 30.2 °F 22.6 °F 14.0 °F 51% 30.01 in 10.0 mi SSW 8.1 mph - N/A   Scattered Clouds
2:15 AM 30.2 °F 22.6 °F 14.0 °F 51% 30.01 in 10.0 mi SSW 8.1 mph - N/A   Scattered Clouds
2:35 AM 30.2 °F 22.6 °F 14.0 °F 51% 30.01 in 10.0 mi SSW 8.1 mph - N/A   Mostly Cloudy
2:55 AM 30.2 °F 26.7 °F 12.2 °F 47% 30.03 in 10.0 mi WNW 3.5 mph - N/A   Overcast
3:15 AM 30.2 °F - 12.2 °F 47% 30.03 in 10.0 mi Calm Calm - N/A   Overcast
3:35 AM 30.2 °F - 14.0 °F 51% 30.03 in 10.0 mi Calm Calm - N/A   Mostly Cloudy
3:55 AM 30.2 °F 26.7 °F 15.8 °F 55% 30.02 in 10.0 mi SSW 3.5 mph - N/A   Mostly Cloudy
4:15 AM 28.4 °F - 15.8 °F 59% 30.04 in 10.0 mi Calm Calm - N/A   Mostly Cloudy
4:35 AM 28.4 °F 24.6 °F 15.8 °F 59% 30.04 in 10.0 mi South 3.5 mph - N/A   Mostly Cloudy
4:55 AM 28.4 °F - 17.6 °F 64% 30.04 in 10.0 mi Calm Calm - N/A   Overcast
5:15 AM 28.4 °F - 17.6 °F 64% 30.05 in 10.0 mi Calm Calm - N/A   Overcast
5:35 AM 28.4 °F - 17.6 °F 64% 30.05 in 10.0 mi Calm Calm - N/A   Overcast
5:50 AM 28.4 °F - 17.6 °F 64% 30.06 in 10.0 mi Calm Calm - N/A   Overcast
6:15 AM 30.2 °F 24.3 °F 21.2 °F 69% 30.08 in 10.0 mi NNW 5.8 mph - N/A   Overcast
6:35 AM 30.2 °F 21.9 °F 26.6 °F 86% 30.08 in 7.0 mi NNW 9.2 mph - N/A   Overcast
6:55 AM 30.2 °F 23.4 °F 26.6 °F 86% 30.08 in 5.0 mi North 6.9 mph - N/A   Overcast
7:15 AM 28.4 °F 22.2 °F 26.6 °F 93% 30.08 in 5.0 mi North 5.8 mph - N/A   Overcast
7:35 AM 28.4 °F 19.7 °F 26.6 °F 93% 30.10 in 4.0 mi North 9.2 mph - N/A   Overcast
7:55 AM 28.4 °F 19.1 °F 26.6 °F 93% 30.12 in 4.0 mi North 10.4 mph 16.1 mph N/A   Overcast
8:15 AM 28.4 °F 19.7 °F 24.8 °F 86% 30.14 in 4.0 mi North 9.2 mph - N/A Snow Light Snow
8:35 AM 28.4 °F 18.5 °F 23.0 °F 80% 30.16 in 7.0 mi North 11.5 mph 19.6 mph N/A   Overcast
8:55 AM 26.6 °F 16.8 °F 23.0 °F 86% 30.16 in 4.0 mi North 10.4 mph - N/A   Overcast
9:15 AM 26.6 °F 13.1 °F 21.2 °F 80% 30.17 in 3.0 mi North 19.6 mph 25.3 mph N/A   Overcast
9:35 AM 24.8 °F 14.0 °F 21.2 °F 86% 30.17 in 4.0 mi North 11.5 mph 17.3 mph N/A   Overcast
9:55 AM 24.8 °F 16.1 °F 21.2 °F 86% 30.16 in 7.0 mi North 8.1 mph - N/A   Overcast
10:15 AM 24.8 °F 13.4 °F 19.4 °F 80% 30.18 in 7.0 mi NNW 12.7 mph 17.3 mph N/A   Overcast
10:35 AM 23.0 °F 11.1 °F 19.4 °F 86% 30.19 in 10.0 mi North 12.7 mph 20.7 mph N/A   Overcast
10:55 AM 24.8 °F 13.4 °F 19.4 °F 80% 30.19 in 7.0 mi North 12.7 mph 16.1 mph N/A   Overcast
11:15 AM 24.8 °F 16.1 °F 19.4 °F 80% 30.21 in 7.0 mi NNW 8.1 mph - N/A   Overcast
11:35 AM 24.8 °F 14.6 °F 17.6 °F 74% 30.20 in 7.0 mi North 10.4 mph - N/A   Overcast
11:55 AM 24.8 °F 14.0 °F 19.4 °F 80% 30.19 in 7.0 mi NNW 11.5 mph - N/A   Overcast
12:15 PM 24.8 °F 12.9 °F 17.6 °F 74% 30.20 in 10.0 mi North 13.8 mph - N/A   Overcast
12:30 PM 23.0 °F 12.4 °F 17.6 °F 80% 30.20 in 7.0 mi NNW 10.4 mph - N/A   Overcast
12:55 PM 23.0 °F 11.7 °F 17.6 °F 80% 30.19 in 7.0 mi North 11.5 mph 17.3 mph N/A   Overcast
1:15 PM 23.0 °F 11.1 °F 17.6 °F 80% 30.20 in 5.0 mi North 12.7 mph - N/A   Haze
1:35 PM 23.0 °F 11.1 °F 17.6 °F 80% 30.20 in 7.0 mi North 12.7 mph - N/A   Overcast
1:55 PM 23.0 °F 11.7 °F 17.6 °F 80% 30.20 in 5.0 mi North 11.5 mph 17.3 mph N/A   Haze
2:15 PM 23.0 °F 12.4 °F 17.6 °F 80% 30.19 in 7.0 mi North 10.4 mph 17.3 mph N/A   Overcast
2:35 PM 23.0 °F 14.7 °F 17.6 °F 80% 30.21 in 5.0 mi North 6.9 mph - N/A   Haze
2:55 PM 21.2 °F 10.1 °F 17.6 °F 86% 30.22 in 5.0 mi NNW 10.4 mph 17.3 mph N/A Snow Light Snow
3:15 PM 21.2 °F 10.1 °F 15.8 °F 80% 30.22 in 5.0 mi NNW 10.4 mph - N/A Snow Light Snow
3:35 PM 21.2 °F 10.9 °F 15.8 °F 80% 30.22 in 5.0 mi NNW 9.2 mph - N/A Snow Light Snow
3:55 PM 21.2 °F 10.1 °F 17.6 °F 86% 30.23 in 4.0 mi North 10.4 mph 18.4 mph N/A Snow Light Snow
4:15 PM 21.2 °F 9.5 °F 17.6 °F 86% 30.23 in 4.0 mi NNW 11.5 mph 17.3 mph N/A Snow Light Snow
4:35 PM 21.2 °F 9.5 °F 15.8 °F 80% 30.23 in 3.0 mi North 11.5 mph - N/A Snow Light Snow
4:55 PM 21.2 °F 8.9 °F 15.8 °F 80% 30.25 in 4.0 mi North 12.7 mph 18.4 mph N/A Snow Light Snow
5:15 PM 21.2 °F 10.1 °F 15.8 °F 80% 30.25 in 2.5 mi North 10.4 mph - N/A Snow Light Snow
5:35 PM 21.2 °F 8.9 °F 17.6 °F 86% 30.25 in 1.5 mi NNW 12.7 mph 17.3 mph N/A Snow Light Snow
5:55 PM 19.4 °F 7.9 °F 15.8 °F 86% 30.26 in 3.0 mi North 10.4 mph 17.3 mph N/A Snow Light Snow
6:15 PM 19.4 °F 7.9 °F 15.8 °F 86% 30.26 in 1.8 mi North 10.4 mph - N/A Snow Light Snow
6:35 PM 19.4 °F 7.2 °F 15.8 °F 86% 30.27 in 1.8 mi North 11.5 mph 16.1 mph N/A Snow Light Snow
6:55 PM 19.4 °F 8.6 °F 15.8 °F 86% 30.27 in 4.0 mi NNE 9.2 mph - N/A Snow Light Snow
7:15 PM 19.4 °F 9.5 °F 15.8 °F 86% 30.27 in 1.8 mi NNE 8.1 mph - N/A Snow Light Snow
7:35 PM 19.4 °F 10.4 °F 14.0 °F 80% 30.28 in 1.8 mi NNE 6.9 mph - N/A Snow Light Snow
7:55 PM 19.4 °F 10.4 °F 14.0 °F 80% 30.28 in 1.5 mi NNE 6.9 mph - N/A Snow Light Snow
8:15 PM 19.4 °F 11.5 °F 14.0 °F 80% 30.27 in 1.5 mi NE 5.8 mph - N/A Snow Light Snow
8:35 PM 17.6 °F 10.7 °F 14.0 °F 86% 30.28 in 3.0 mi NNE 4.6 mph - N/A Snow Light Snow
8:55 PM 17.6 °F 12.3 °F 14.0 °F 86% 30.29 in 4.0 mi NNE 3.5 mph - N/A Snow Light Snow
9:15 PM 17.6 °F 9.3 °F 14.0 °F 86% 30.29 in 3.0 mi NNE 5.8 mph - N/A Snow Light Snow
9:35 PM 17.6 °F 12.3 °F 14.0 °F 86% 30.30 in 1.5 mi NNE 3.5 mph - N/A Snow Light Snow
9:55 PM 17.6 °F 9.3 °F 14.0 °F 86% 30.30 in 1.8 mi NNE 5.8 mph - N/A Snow Light Snow
10:15 PM 17.6 °F 9.3 °F 14.0 °F 86% 30.29 in 5.0 mi NE 5.8 mph - N/A Snow Light Snow
10:35 PM 17.6 °F 10.7 °F 12.2 °F 79% 30.30 in 3.0 mi North 4.6 mph - N/A Snow Light Snow
10:55 PM 17.6 °F 12.3 °F 14.0 °F 86% 30.28 in 2.0 mi NE 3.5 mph - N/A Snow Light Snow
11:15 PM 17.6 °F - 14.0 °F 86% 30.28 in 2.0 mi Calm Calm - N/A Snow Light Snow
11:35 PM 17.6 °F - 14.0 °F 86% 30.27 in 2.0 mi Calm Calm - N/A Snow Light Snow
11:55 PM 17.6 °F - 12.2 °F 79% 30.28 in 3.0 mi Calm Calm - N/A Snow Light Snow